H1 CPF 2 NER 2021 6 28 9 179 01 glonass143 H2 2007501 9143 46805 2021 6 28 0 0 0 2021 7 1 23 45 0 900 1 1 0 0 0 1 H9 10 0 59393 0.00000 0 -5768200.169 13208838.584 21054204.864 10 0 59393 900.00000 0 -8010963.643 14321445.007 19536107.779 10 0 59393 1800.00000 0 -9982292.927 15494295.115 17638827.070 10 0 59393 2700.00000 0 -11648051.210 16671638.324 15399097.995 10 0 59393 3600.00000 0 -12986282.359 17793953.921 12860322.236 10 0 59393 4500.00000 0 -13987877.319 18800499.587 10071733.671 10 0 59393 5400.00000 0 -14656707.691 19631933.007 7087448.543 10 0 59393 6300.00000 0 -15009220.985 20232896.159 3965417.789 10 0 59393 7200.00000 0 -15073514.833 20554452.935 766301.706 10 0 59393 8100.00000 0 -14887929.451 20556276.541 -2447711.146 10 0 59393 9000.00000 0 -14499218.187 20208493.242 -5614117.495 10 0 59393 9900.00000 0 -13960373.945 19493103.434 -8671320.999 10 0 59393 10800.00000 0 -13328204.078 18404918.670 -11559837.457 10 0 59393 11700.00000 0 -12660757.136 16951973.817 -14223459.317 10 0 59393 12600.00000 0 -12014711.176 15155395.727 -16610355.875 10 0 59393 13500.00000 0 -11442834.916 13048732.891 -18674087.187 10 0 59393 14400.00000 0 -10991629.878 10676773.291 -20374511.483 10 0 59393 15300.00000 0 -10699253.745 8093899.404 -21678568.138 10 0 59393 16200.00000 0 -10593813.098 5362048.671 -22560920.996 10 0 59393 17100.00000 0 -10692097.856 2548364.220 -23004449.741 10 0 59393 18000.00000 0 -10998810.867 -277366.361 -23000579.997 10 0 59393 18900.00000 0 -11506325.111 -3045377.863 -22549446.196 10 0 59393 19800.00000 0 -12194978.562 -5688589.285 -21659884.390 10 0 59393 20700.00000 0 -13033894.101 -8145150.311 -20349255.530 10 0 59393 21600.00000 0 -13982289.690 -10360767.239 -18643102.915 10 0 59393 22500.00000 0 -14991223.396 -12290712.418 -16574650.688 10 0 59393 23400.00000 0 -16005699.530 -13901434.509 -14184153.294 10 0 59393 24300.00000 0 -16967046.927 -15171703.778 -11518108.704 10 0 59393 25200.00000 0 -17815468.987 -16093246.031 -8628350.803 10 0 59393 26100.00000 0 -18492657.764 -16670840.269 -5571038.805 10 0 59393 27000.00000 0 -18944361.787 -16921877.626 -2405563.601 10 0 59393 27900.00000 0 -19122799.175 -16875401.793 806607.542 10 0 59393 28800.00000 0 -18988814.245 -16570672.739 4003125.075 10 0 59393 29700.00000 0 -18513686.634 -16055315.562 7121966.681 10 0 59393 30600.00000 0 -17680516.618 -15383133.498 10102638.621 10 0 59393 31500.00000 0 -16485128.240 -14611678.026 12887345.482 10 0 59393 32400.00000 0 -14936452.034 -13799678.899 15422105.903 10 0 59393 33300.00000 0 -13056370.919 -13004442.500 17657793.034 10 0 59393 34200.00000 0 -10879035.201 -12279327.918 19551080.075 10 0 59393 35100.00000 0 -8449674.563 -11671406.570 21065273.359 10 0 59393 36000.00000 0 -5822955.637 -11219403.295 22171017.617 10 0 59393 36900.00000 0 -3060952.442 -10952004.928 22846860.519 10 0 59393 37800.00000 0 -230812.808 -10886606.966 23079666.234 10 0 59393 38700.00000 0 2597783.827 -11028550.701 22864870.424 10 0 59393 39600.00000 0 5355273.037 -11370882.858 22206571.881 10 0 59393 40500.00000 0 7974848.137 -11894648.137 21117458.858 10 0 59393 41400.00000 0 10394990.670 -12569702.951 19618570.996 10 0 59393 42300.00000 0 12561784.567 -13356016.962 17738900.719 10 0 59393 43200.00000 0 14430918.758 -14205408.618 15514840.820 10 0 59393 44100.00000 0 15969295.466 -15063642.564 12989487.871 10 0 59393 45000.00000 0 17156177.485 -15872801.366 10211814.012 10 0 59393 45900.00000 0 17983826.805 -16573832.082 7235722.283 10 0 59393 46800.00000 0 18457607.961 -17109160.395 4119003.226 10 0 59393 47700.00000 0 18595551.873 -17425261.722 922212.800 10 0 59393 48600.00000 0 18427398.728 -17475080.050 -2292506.562 10 0 59393 49500.00000 0 17993160.448 -17220191.337 -5462638.495 10 0 59393 50400.00000 0 17341263.792 -16632618.799 -8526514.531 10 0 59393 51300.00000 0 16526353.042 -15696222.018 -11424520.702 10 0 59393 52200.00000 0 15606845.752 -14407599.745 -14100264.579 10 0 59393 53100.00000 0 14642345.583 -12776466.902 -16501679.148 10 0 59393 54000.00000 0 13691022.295 -10825488.601 -18582041.412 10 0 59393 54900.00000 0 12807070.202 -8589576.952 -20300885.408 10 0 59393 55800.00000 0 12038352.956 -6114679.274 -21624791.588 10 0 59393 56700.00000 0 11424334.344 -3456107.674 -22528037.218 10 0 59393 57600.00000 0 10994382.497 -676479.198 -22993095.316 10 0 59393 58500.00000 0 10766518.875 2156647.870 -23010972.713 10 0 59393 59400.00000 0 10746664.432 4973343.449 -22581381.078 10 0 59393 60300.00000 0 10928414.265 7703974.319 -21712737.944 10 0 59393 61200.00000 0 11293349.704 10281861.251 -20421998.101 10 0 59393 62100.00000 0 11811874.067 12645814.660 -18734318.900 10 0 59393 63000.00000 0 12444536.296 14742443.949 -16682566.192 10 0 59393 63900.00000 0 13143786.099 16528145.141 -14306670.703 10 0 59393 64800.00000 0 13856086.078 17970685.016 -11652847.485 10 0 59393 65700.00000 0 14524291.273 19050316.845 -8772693.743 10 0 59393 66600.00000 0 15090195.342 19760382.408 -5722182.824 10 0 59393 67500.00000 0 15497135.534 20107376.574 -2560574.118 10 0 59393 68400.00000 0 15692546.238 20110473.272 650739.695 10 0 59393 69300.00000 0 15630353.097 19800534.174 3849425.314 10 0 59393 70200.00000 0 15273106.473 19218643.145 6973418.040 10 0 59393 71100.00000 0 14593764.105 18414229.222 9962123.956 10 0 59393 72000.00000 0 13577047.671 17442857.973 12757591.668 10 0 59393 72900.00000 0 12220315.880 16363784.732 15305631.075 10 0 59393 73800.00000 0 10533916.962 15237372.860 17556857.915 10 0 59393 74700.00000 0 8541005.242 14122485.506 19467644.312 10 0 59393 75600.00000 0 6276828.650 13073960.093 21000957.682 10 0 59393 76500.00000 0 3787515.881 12140271.002 22127072.537 10 0 59393 77400.00000 0 1128412.629 11361477.856 22824142.141 10 0 59393 78300.00000 0 -1637965.288 10767544.780 23078619.610 10 0 59393 79200.00000 0 -4444278.371 10377100.460 22885520.783 10 0 59393 80100.00000 0 -7220913.495 10196690.617 22248523.878 10 0 59393 81000.00000 0 -9898633.258 10220554.044 21179903.882 10 0 59393 81900.00000 0 -12411216.110 10430931.670 19700302.444 10 0 59393 82800.00000 0 -14697978.682 10798896.059 17838336.952 10 0 59393 83700.00000 0 -16706076.482 11285666.957 15630055.441 10 0 59393 84600.00000 0 -18392487.854 11844358.167 13118246.776 10 0 59393 85500.00000 0 -19725598.796 12422082.759 10351618.535 10 0 59394 0.00000 0 -20686322.690 12962328.282 7383857.707 10 0 59394 900.00000 0 -21268707.896 13407501.693 4272591.385 10 0 59394 1800.00000 0 -21480008.252 13701536.954 1078268.391 10 0 59394 2700.00000 0 -21340212.319 13792453.382 -2137017.722 10 0 59394 3600.00000 0 -20881052.584 13634756.978 -5310740.126 10 0 59394 4500.00000 0 -20144535.495 13191581.053 -8381160.717 10 0 59394 5400.00000 0 -19181055.165 12436474.704 -11288538.074 10 0 59394 6300.00000 0 -18047170.656 11354761.902 -13976297.031 10 0 59394 7200.00000 0 -16803141.285 9944412.340 -16392136.172 10 0 59394 8100.00000 0 -15510324.601 8216385.878 -18489051.082 10 0 59394 9000.00000 0 -14228547.360 6194434.663 -20226252.942 10 0 59394 9900.00000 0 -13013560.855 3914370.176 -21569964.285 10 0 59394 10800.00000 0 -11914688.084 1422824.861 -22494076.462 10 0 59394 11700.00000 0 -10972761.877 -1224440.621 -22980656.158 10 0 59394 12600.00000 0 -10218440.582 -3964614.392 -23020291.416 10 0 59394 13500.00000 0 -9670971.706 -6730208.488 -22612270.828 10 0 59394 14400.00000 0 -9337454.853 -9451633.625 -21764592.793 10 0 59394 15300.00000 0 -9212634.143 -12059866.728 -20493805.029 10 0 59394 16200.00000 0 -9279227.923 -14489100.626 -18824677.761 10 0 59394 17100.00000 0 -9508780.902 -16679266.180 -16789717.142 10 0 59394 18000.00000 0 -9863001.886 -18578322.298 -14428528.566 10 0 59394 18900.00000 0 -10295529.803 -20144219.216 -11787042.412 10 0 59394 19800.00000 0 -10754052.736 -21346454.014 -8916617.345 10 0 59394 20700.00000 0 -11182689.798 -22167154.402 -5873038.904 10 0 59394 21600.00000 0 -11524534.698 -22601646.655 -2715432.999 10 0 59394 22500.00000 0 -11724253.043 -22658485.179 494884.321 10 0 59394 23400.00000 0 -11730623.285 -22358943.751 3695598.116 10 0 59394 24300.00000 0 -11498913.685 -21735991.044 6824603.494 10 0 59394 25200.00000 0 -10992994.693 -20832794.591 9821208.642 10 0 59394 26100.00000 0 -10187097.413 -19700816.942 12627308.520 10 0 59394 27000.00000 0 -9067143.784 -18397584.650 15188506.636 10 0 59394 27900.00000 0 -7631592.084 -16984224.091 17455163.613 10 0 59394 28800.00000 0 -5891761.755 -15522867.585 19383352.652 10 0 59394 29700.00000 0 -3871623.128 -14074038.296 20935704.196 10 0 59394 30600.00000 0 -1607059.838 -12694122.946 22082124.200 10 0 59394 31500.00000 0 855366.458 -11433037.468 22800372.832 10 0 59394 32400.00000 0 3460099.017 -10332182.449 23076493.121 10 0 59394 33300.00000 0 6144648.174 -9422773.069 22905081.665 10 0 59394 34200.00000 0 8841948.559 -8724612.720 22289396.331 10 0 59394 35100.00000 0 11482915.092 -8245361.016 21241298.728 10 0 59394 36000.00000 0 13999093.074 -7980326.550 19781032.063 10 0 59394 36900.00000 0 16325293.502 -7912792.963 17936837.937 10 0 59394 37800.00000 0 18402105.003 -8014864.763 15744418.561 10 0 59394 38700.00000 0 20178178.583 -8248797.562 13246253.702 10 0 59394 39600.00000 0 21612190.172 -8568757.088 10490784.657 10 0 59394 40500.00000 0 22674399.181 -8922933.051 7531480.168 10 0 59394 41400.00000 0 23347737.711 -9255918.742 4425801.746 10 0 59394 42300.00000 0 23628384.486 -9511255.684 1234088.270 10 0 59394 43200.00000 0 23525799.151 -9634035.244 -1981618.488 10 0 59394 44100.00000 0 23062215.259 -9573446.345 -5158784.256 10 0 59394 45000.00000 0 22271613.170 -9285160.414 -8235604.331 10 0 59394 45900.00000 0 21198216.229 -8733451.298 -11152212.801 10 0 59394 46800.00000 0 19894573.795 -7892959.045 -13851854.555 10 0 59394 47700.00000 0 18419312.379 -6750021.470 -16281996.354 10 0 59394 48600.00000 0 16834650.100 -5303515.794 -18395354.687 10 0 59394 49500.00000 0 15203779.657 -3565173.409 -20150819.929 10 0 59394 50400.00000 0 13588230.458 -1559353.251 -21514258.469 10 0 59394 51300.00000 0 12045321.095 677717.848 -22459177.193 10 0 59394 52200.00000 0 10625809.319 3099207.003 -22967237.590 10 0 59394 53100.00000 0 9371838.047 5649387.217 -23028609.696 10 0 59394 54000.00000 0 8315263.144 8265728.588 -22642159.445 10 0 59394 54900.00000 0 7476432.429 10881282.044 -21815466.139 10 0 59394 55800.00000 0 6863466.188 13427256.587 -20564670.093 10 0 59394 56700.00000 0 6472068.272 15835683.078 -18914153.686 10 0 59394 57600.00000 0 6285874.421 18042053.954 -16896062.275 10 0 59394 58500.00000 0 6277321.908 19987829.260 -14549674.448 10 0 59394 59400.00000 0 6409002.597 21622704.984 -11920634.051 10 0 59394 60300.00000 0 6635441.201 22906549.695 -9060058.992 10 0 59394 61200.00000 0 6905222.695 23810929.232 -6023544.432 10 0 59394 62100.00000 0 7163378.133 24320156.600 -2870079.923 10 0 59394 63000.00000 0 7353927.335 24431824.105 339098.229 10 0 59394 63900.00000 0 7422470.429 24156796.435 3541696.701 10 0 59394 64800.00000 0 7318718.257 23518666.071 6675573.718 10 0 59394 65700.00000 0 6998854.427 22552694.868 9679942.833 10 0 59394 66600.00000 0 6427629.017 21304287.048 12496548.475 10 0 59394 67500.00000 0 5580095.365 19827058.329 15070790.682 10 0 59394 68400.00000 0 4442916.446 18180582.511 17352777.603 10 0 59394 69300.00000 0 3015185.467 16427910.023 19298285.860 10 0 59394 70200.00000 0 1308725.560 14632962.105 20869610.913 10 0 59394 71100.00000 0 -652144.878 12857909.078 22036291.755 10 0 59394 72000.00000 0 -2831372.487 11160641.590 22775696.646 10 0 59394 72900.00000 0 -5182424.535 9592439.527 23073459.230 10 0 59394 73800.00000 0 -7649989.036 8195934.942 22923757.063 10 0 59394 74700.00000 0 -10172050.187 7003453.160 22329427.320 10 0 59394 75600.00000 0 -12682254.527 6035800.438 21301917.315 10 0 59394 76500.00000 0 -15112470.962 5301548.194 19861070.338 10 0 59394 77400.00000 0 -17395439.507 4796843.304 18034750.191 10 0 59394 78300.00000 0 -19467399.633 4505752.124 15858310.767 10 0 59394 79200.00000 0 -21270589.501 4401123.724 13373919.862 10 0 59394 80100.00000 0 -22755512.165 4445936.061 10629749.337 10 0 59394 81000.00000 0 -23882874.168 4595068.469 7679046.439 10 0 59394 81900.00000 0 -24625115.216 4797425.651 4579103.625 10 0 59394 82800.00000 0 -24967464.315 4998323.305 1390146.599 10 0 59394 83700.00000 0 -24908477.603 5142034.066 -1825837.797 10 0 59394 84600.00000 0 -24460034.695 5174385.330 -5006310.831 10 0 59394 85500.00000 0 -23646793.318 5045298.022 -8089403.967 10 0 59395 0.00000 0 -22505124.931 4711157.685 -11015129.287 10 0 59395 900.00000 0 -21081575.968 4136915.687 -13726554.130 10 0 59395 1800.00000 0 -19430919.991 3297831.579 -16170915.371 10 0 59395 2700.00000 0 -17613882.556 2180779.210 -18300652.034 10 0 59395 3600.00000 0 -15694635.172 785062.404 -20074334.918 10 0 59395 4500.00000 0 -13738163.962 -877297.059 -21457475.040 10 0 59395 5400.00000 0 -11807623.771 -2781811.810 -22423195.139 10 0 59395 6300.00000 0 -9961788.801 -4892312.252 -22952751.338 10 0 59395 7200.00000 0 -8252706.536 -7162228.894 -23035895.058 10 0 59395 8100.00000 0 -6723652.805 -9536320.690 -22671068.561 10 0 59395 9000.00000 0 -5407472.880 -11952777.785 -21865430.699 10 0 59395 9900.00000 0 -4325377.163 -14345611.193 -20634712.723 10 0 59395 10800.00000 0 -3486240.632 -16647230.108 -19002907.297 10 0 59395 11700.00000 0 -2886434.023 -18791099.622 -17001796.937 10 0 59395 12600.00000 0 -2510192.333 -20714368.160 -14670331.286 10 0 59395 13500.00000 0 -2330503.572 -22360355.328 -12053865.468 10 0 59395 14400.00000 0 -2310478.857 -23680796.601 -9203274.453 10 0 59395 15300.00000 0 -2405144.758 -24637751.465 -6173960.888 10 0 59395 16200.00000 0 -2563581.017 -25205095.724 -3024775.900 10 0 59395 17100.00000 0 -2731312.335 -25369536.216 183125.934 10 0 59395 18000.00000 0 -2852852.367 -25131106.084 3387474.852 10 0 59395 18900.00000 0 -2874291.760 -24503120.717 6526094.097 10 0 59395 19800.00000 0 -2745820.383 -23511596.948 9538104.464 10 0 59395 20700.00000 0 -2424076.931 -22194160.588 12365101.712 10 0 59395 21600.00000 0 -1874226.467 -20598488.650 14952284.221 10 0 59395 22500.00000 0 -1071678.039 -18780351.809 17249509.405 10 0 59395 23400.00000 0 -3369.818 -16801339.149 19212258.904 10 0 59395 24300.00000 0 1331432.798 -14726360.080 20802494.599 10 0 59395 25200.00000 0 2920860.266 -12621027.256 21989389.693 10 0 59395 26100.00000 0 4740695.688 -10549028.965 22749921.414 10 0 59395 27000.00000 0 6755155.767 -8569599.639 23069314.600 10 0 59395 27900.00000 0 8918164.801 -6735192.751 22941328.030 10 0 59395 28800.00000 0 11175070.078 -5089452.085 22368378.149 10 0 59395 29700.00000 0 13464728.899 -3665564.863 21361497.668 10 0 59395 30600.00000 0 15721881.934 -2485064.447 19940129.382 10 0 59395 31500.00000 0 17879715.419 -1557131.995 18131758.466 10 0 59395 32400.00000 0 19872506.672 -878425.609 15971389.431 10 0 59395 33300.00000 0 21638243.463 -433443.826 13500876.778 10 0 59395 34200.00000 0 23121108.261 -195407.962 10768121.354 10 0 59395 35100.00000 0 24273723.661 -127626.045 7826147.058 10 0 59395 36000.00000 0 25059064.670 -185280.719 4732075.147 10 0 59395 36900.00000 0 25451957.159 -317565.417 1546015.768 10 0 59395 37800.00000 0 25440098.859 -470078.103 -1670101.781 10 0 59395 38700.00000 0 25024559.237 -587370.690 -4853737.035 10 0 59395 39600.00000 0 24219736.492 -615545.342 -7942960.417 10 0 59395 40500.00000 0 23052772.906 -504786.633 -10877664.841 10 0 59395 41400.00000 0 21562452.730 -211721.094 -13600742.470 10 0 59395 42300.00000 0 19797628.819 298497.058 -16059202.775 10 0 59395 43200.00000 0 17815244.167 1050463.598 -18205209.495 10 0 59395 44100.00000 0 15678031.600 2057239.530 -19997015.775 10 0 59395 45000.00000 0 13451988.450 3319559.323 -21399778.945 10 0 59395 45900.00000 0 11203732.264 4825566.663 -22386239.035 10 0 59395 46800.00000 0 8997848.398 6551089.891 -22937247.990 10 0 59395 47700.00000 0 6894340.440 8460446.369 -23042139.523 10 0 59395 48600.00000 0 4946289.712 10507742.772 -22698932.820 10 0 59395 49500.00000 0 3197821.045 12638617.457 -21914366.519 10 0 59395 50400.00000 0 1682458.990 14792352.368 -20703762.686 10 0 59395 51300.00000 0 421941.960 16904266.556 -19090723.727 10 0 59395 52200.00000 0 -574457.542 18908291.502 -17106668.376 10 0 59395 53100.00000 0 -1310079.652 20739620.754 -14790215.973 10 0 59395 54000.00000 0 -1800486.494 22337323.300 -12186431.179 10 0 59395 54900.00000 0 -2072552.225 23646811.547 -9345943.894 10 0 59395 55800.00000 0 -2163073.717 24622060.816 -6323961.792 10 0 59395 56700.00000 0 -2116961.963 25227487.716 -3179194.813 10 0 59395 57600.00000 0 -1985091.798 25439409.090 27287.197 10 0 59395 58500.00000 0 -1821901.839 25247020.795 3233241.187 10 0 59395 59400.00000 0 -1682846.865 24652855.837 6376458.643 10 0 59395 60300.00000 0 -1621810.944 23672703.165 9395970.820 10 0 59395 61200.00000 0 -1688590.955 22334991.045 12233227.940 10 0 59395 62100.00000 0 -1926557.024 20679661.242 14833229.698 10 0 59395 63000.00000 0 -2370588.758 18756581.334 17145585.537 10 0 59395 63900.00000 0 -3045374.343 16623561.611 19125484.615 10 0 59395 64800.00000 0 -3964144.383 14344059.093 20734557.436 10 0 59395 65700.00000 0 -5127894.046 11984663.926 21941613.256 10 0 59395 66600.00000 0 -6525126.827 9612472.191 22723239.725 10 0 59395 67500.00000 0 -8132131.551 7292453.497 23064253.879 10 0 59395 68400.00000 0 -9913782.243 5084921.762 22957996.231 10 0 59395 69300.00000 0 -11824828.793 3043213.283 22406462.454 10 0 59395 70200.00000 0 -13811626.105 1211667.484 21420270.027 10 0 59395 71100.00000 0 -15814231.148 -376006.660 20018460.031 10 0 59395 72000.00000 0 -17768781.851 -1697911.323 18228137.210 10 0 59395 72900.00000 0 -19610059.829 -2744639.145 16083954.337 10 0 59395 73800.00000 0 -21274130.904 -3519423.363 13627449.800 10 0 59395 74700.00000 0 -22700953.521 -4037752.798 10906250.223 10 0 59395 75600.00000 0 -23836846.126 -4326468.218 7973152.693 10 0 59395 76500.00000 0 -24636709.858 -4422378.355 4885103.666 10 0 59395 77400.00000 0 -25065912.675 -4370454.184 1702094.086 10 0 59395 78300.00000 0 -25101755.009 -4221678.145 -1514007.867 10 0 59395 79200.00000 0 -24734454.316 -4030639.804 -4700663.450 10 0 59395 80100.00000 0 -23967606.104 -3852980.455 -7795885.288 10 0 59395 81000.00000 0 -22818101.172 -3742795.830 -10739450.098 10 0 59395 81900.00000 0 -21315501.705 -3750108.021 -13474077.707 10 0 59395 82800.00000 0 -19500902.003 -3918514.827 -15946552.540 10 0 59395 83700.00000 0 -17425321.383 -4283117.279 -18108765.029 10 0 59395 84600.00000 0 -15147696.560 -4868814.158 -19918652.175 10 0 59395 85500.00000 0 -12732557.797 -5689036.673 -21341018.566 10 0 59396 0.00000 0 -10247486.181 -6744977.649 -22348221.868 10 0 59396 900.00000 0 -7760458.402 -8025348.998 -22920709.606 10 0 59396 1800.00000 0 -5337189.884 -9506677.253 -23047396.934 10 0 59396 2700.00000 0 -3038587.380 -11154127.216 -22725878.565 10 0 59396 3600.00000 0 -918415.925 -12922817.858 -21962471.106 10 0 59396 4500.00000 0 978722.371 -14759576.756 -20772085.243 10 0 59396 5400.00000 0 2619014.919 -16605059.359 -19177930.682 10 0 59396 6300.00000 0 3980603.909 -18396144.658 -17211059.751 10 0 59396 7200.00000 0 5054243.025 -20068506.933 -14909758.767 10 0 59396 8100.00000 0 5843419.909 -21559255.941 -12318799.158 10 0 59396 9000.00000 0 6363941.029 -22809534.978 -9488563.026 10 0 59396 9900.00000 0 6642998.172 -23766967.922 -6474060.391 10 0 59396 10800.00000 0 6717757.581 -24387852.734 -3333857.448 10 0 59396 11700.00000 0 6633532.722 -24639009.564 -128936.879 10 0 59396 12600.00000 0 6441619.086 -24499206.091 3078487.249 10 0 59396 13500.00000 0 6196883.500 -23960100.558 6226176.779 10 0 59396 14400.00000 0 5955210.579 -23026663.242 9253075.362 10 0 59396 15300.00000 0 5770914.660 -21717058.926 12100489.431 10 0 59396 16200.00000 0 5694226.820 -20061995.563 14713221.541 10 0 59396 17100.00000 0 5768963.127 -18103566.374 17040634.485 10 0 59396 18000.00000 0 6030472.425 -15893633.760 19037626.014 10 0 59396 18900.00000 0 6503950.103 -13491822.127 20665496.055 10 0 59396 19800.00000 0 7203188.893 -10963202.669 21892690.431 10 0 59396 20700.00000 0 8129819.408 -8375765.796 22695407.417 10 0 59396 21600.00000 0 9273072.868 -5797785.234 23058056.154 10 0 59396 22500.00000 0 10610076.765 -3295182.183 22973558.509 10 0 59396 23400.00000 0 12106672.151 -928997.832 22443488.754 10 0 59396 24300.00000 0 13718719.686 1246922.020 21478048.286 10 0 59396 25200.00000 0 15393841.259 3187935.216 20095875.431 10 0 59396 26100.00000 0 17073525.772 4860221.769 18323693.290 10 0 59396 27000.00000 0 18695512.312 6241946.119 16195801.556 10 0 59396 27900.00000 0 20196352.083 7323915.326 13753420.991 10 0 59396 28800.00000 0 21514042.440 8109706.114 11043902.351 10 0 59396 29700.00000 0 22590622.960 8615255.868 8119814.091 10 0 59396 30600.00000 0 23374624.458 8867935.075 5037925.872 10 0 59396 31500.00000 0 23823267.527 8905140.550 1858107.284 10 0 59396 32400.00000 0 23904317.339 8772469.189 -1357836.895 10 0 59396 33300.00000 0 23597515.563 8521549.876 -4547372.001 10 0 59396 34200.00000 0 22895527.947 8207625.913 -7648455.246 10 0 59396 35100.00000 0 21804366.481 7886991.100 -10600749.457 10 0 59396 36000.00000 0 20343267.288 7614389.004 -13346804.316 10 0 59396 36900.00000 0 18544028.504 7440486.551 -15833181.208 10 0 59396 37800.00000 0 16449835.283 7409529.978 -18011499.068 10 0 59396 38700.00000 0 14113620.744 7557283.351 -19839380.355 10 0 59396 39600.00000 0 11596031.384 7909337.705 -21281278.345 10 0 59396 40500.00000 0 8963081.932 8479863.074 -22309169.597 10 0 59396 41400.00000 0 6283597.575 9270856.737 -22903098.242 10 0 59396 42300.00000 0 3626550.300 10271919.893 -23051561.725 10 0 59396 43200.00000 0 1058400.197 11460572.603 -22751730.913 10 0 59396 44100.00000 0 -1359447.915 12803094.068 -22009500.658 10 0 59396 45000.00000 0 -3572967.074 14255853.120 -20839370.202 10 0 59396 45900.00000 0 -5537514.162 15767073.196 -19264156.086 10 0 59396 46800.00000 0 -7219436.785 17278957.762 -17314543.358 10 0 59396 47700.00000 0 -8597215.351 18730086.935 -15028484.041 10 0 59396 48600.00000 0 -9662094.234 20057984.685 -12450454.705 10 0 59396 49500.00000 0 -10418177.396 21201748.738 -9630587.686 10 0 59396 50400.00000 0 -10881986.216 22104632.657 -6623693.120 10 0 59396 51300.00000 0 -11081499.933 22716471.535 -3488190.987 10 0 59396 52200.00000 0 -11054720.771 22995849.388 -284974.164 10 0 59396 53100.00000 0 -10847825.674 22911917.133 2923775.047 10 0 59396 54000.00000 0 -10512983.889 22445784.859 6075791.703 10 0 59396 54900.00000 0 -10105933.461 21591429.954 9109934.748 10 0 59396 55800.00000 0 -9683419.604 20356083.091 11967369.707 10 0 59396 56700.00000 0 -9300603.443 18760075.863 14592704.823 10 0 59396 57600.00000 0 -9008550.585 16836156.355 16935058.951 10 0 59396 58500.00000 0 -8851905.309 14628301.033 18949040.987 10 0 59396 59400.00000 0 -8866848.170 12190072.102 20595622.612 10 0 59396 60300.00000 0 -9079422.775 9582588.063 21842888.275 10 0 59396 61200.00000 0 -9504301.989 6872191.139 22666648.616 10 0 59396 62100.00000 0 -10144045.483 4127907.393 23050906.223 10 0 59396 63000.00000 0 -10988880.155 1418803.750 22988165.208 10 0 59396 63900.00000 0 -12017013.278 -1188649.588 22479578.825 10 0 59396 64800.00000 0 -13195466.187 -3633103.255 21534932.224 10 0 59396 65700.00000 0 -14481394.722 -5860635.812 20172460.227 10 0 59396 66600.00000 0 -15823842.356 -7826748.999 18418502.971 10 0 59396 67500.00000 0 -17165853.747 -9497969.095 16307005.168 10 0 59396 68400.00000 0 -18446861.230 -10852988.411 13878867.567 10 0 59396 69300.00000 0 -19605244.867 -11883299.716 11181162.207 10 0 59396 70200.00000 0 -20580959.014 -12593297.494 8266225.731 10 0 59396 71100.00000 0 -21318115.031 -12999842.098 5190647.578 10 0 59396 72000.00000 0 -21767411.052 -13131305.345 2014172.399 10 0 59396 72900.00000 0 -21888305.737 -13026138.095 -1201462.066 10 0 59396 73800.00000 0 -21650843.351 -12731020.678 -4393728.867 10 0 59396 74700.00000 0 -21037051.971 -12298674.816 -7500533.347 10 0 59396 75600.00000 0 -20041854.530 -11785430.302 -10461427.850 10 0 59396 76500.00000 0 -18673453.005 -11248650.220 -13218795.115 10 0 59396 77400.00000 0 -16953168.356 -10744124.559 -15718976.398 10 0 59396 78300.00000 0 -14914741.962 -10323543.459 -17913321.675 10 0 59396 79200.00000 0 -12603127.017 -10032157.867 -19759140.925 10 0 59396 80100.00000 0 -10072820.060 -9906727.249 -21220537.606 10 0 59396 81000.00000 0 -7385802.040 -9973841.713 -22269108.012 10 0 59396 81900.00000 0 -4609174.639 -10248689.819 -22884493.072 10 0 59396 82800.00000 0 -1812590.375 -10734324.362 -23054772.025 10 0 59396 83700.00000 0 934416.699 -11421457.210 -22776690.764 10 0 59396 84600.00000 0 3565088.897 -12288791.916 -22055720.728 10 0 59396 85500.00000 0 6017981.140 -13303880.016 -20905947.611 99